Theta_e
313 313 313 312 312 314 314 316 318 319 322 321 321 320 320 323 326 334 336 336 335 335
313 312 314 312 312 313 314 317 318 319 318 321 328 328 326 321 329 331 332 335 337 337
311 312 313 312 311 311 313 314 315 317 318 319 323 327 326 324 330 325 325 327 334 334
310 311 310 310 310 310 312 314 315 317 318 319 320 324 324 321 322 323 323 328 333 332
308 307 306 306 307 308 309 311 312 312 314 318 320 322 326 324 324 328 329 330 332 333
304 304 303 304 305 306 306 307 308 310 313 316 318 320 324 330 332 330 330 331 332 332
302 302 302 302 303 304 305 306 307 310 313 316 318 321 323 327 330 329 326 329 331 332
301 301 302 302 302 304 304 306 307 310 313 314 319 321 321 327 317 316 317 319 322 330
301 301 302 302 303 302 303 305 306 310 311 315 320 316 315 320 316 316 316 317 323 326
301 301 302 301 301 302 303 305 308 311 312 317 320 310 306 311 315 315 319 320 321 321
301 302 302 300 301 302 303 306 310 312 319 317 315 308 305 308 317 316 320 314 317 316
300 300 299 299 300 302 304 308 310 315 315 313 313 303 306 313 319 317 316 316 316 315
300 299 299 300 301 303 305 309 311 310 310 308 309 301 303 311 312 309 308 309 310 308
300 300 301 300 301 303 306 307 306 304 304 306 307 303 302 304 310 308 306 306 304 302
Wind_Speed
5 4 5 4 2 6 7 8 9 6 5 6 9 10 9 4 4 9 12 13 6 5
4 4 5 6 4 3 7 8 12 10 6 6 9 11 11 8 6 4 10 17 9 7
6 6 5 3 5 6 9 10 11 11 8 6 8 12 12 12 11 8 6 15 15 7
2 2 4 5 5 6 10 9 10 11 11 10 10 12 9 10 13 15 17 15 17 9
4 4 4 5 6 7 11 12 12 13 15 13 12 12 11 13 12 13 17 14 14 11
6 6 5 6 7 9 12 13 14 14 14 13 14 13 12 14 14 13 11 17 15 10
6 6 6 7 8 11 12 14 15 14 14 14 14 13 12 14 13 8 2 5 9 9
7 7 8 10 11 10 13 13 14 15 13 15 13 9 14 11 5 6 5 4 9 5
9 10 10 11 11 13 14 13 14 13 13 16 11 15 18 12 9 7 7 5 8 5
9 10 11 13 13 14 14 12 15 12 15 14 15 11 9 10 5 7 7 9 10 10
9 11 11 14 13 14 10 13 10 14 10 3 3 5 8 4 5 3 8 10 13 17
12 12 11 12 13 11 10 12 13 5 5 3 4 4 14 11 7 5 5 8 12 14
11 12 11 11 10 10 10 13 3 2 2 2 0 9 8 14 11 9 6 9 8 13
11 11 8 10 10 9 12 2 1 3 4 6 6 4 10 14 10 9 9 8 8 7
Wind_Direction
233 249 265 269 277 293 297 300 306 314 331 310 277 276 270 219 267 295 259 237 209 209
244 263 249 264 279 280 289 298 303 306 287 281 283 261 268 278 255 270 295 262 219 201
242 247 267 326 319 296 286 298 298 295 284 269 264 274 243 245 246 238 224 274 255 213
306 326 14 352 319 299 301 313 320 317 304 295 285 277 252 207 221 224 229 236 242 222
351 357 347 317 305 302 304 306 307 305 296 292 285 281 291 259 223 213 234 231 236 229
325 330 329 324 300 301 300 299 299 292 285 290 284 283 280 285 260 235 218 217 229 208
312 308 304 284 287 296 297 295 292 290 286 287 276 274 284 278 274 264 316 271 222 184
279 279 276 282 289 287 288 284 286 287 285 284 269 267 264 266 167 151 121 59 6 265
273 273 276 287 289 291 284 286 285 278 281 276 263 258 257 209 181 153 129 117 58 65
269 269 276 290 288 285 287 291 286 285 281 271 268 253 236 216 177 133 139 95 103 120
271 276 273 286 282 281 288 285 287 287 276 291 292 218 171 164 106 95 139 130 127 113
287 278 278 281 278 284 288 292 293 268 303 292 292 273 152 137 112 38 38 77 100 135
285 281 280 272 277 281 282 282 313 320 8 50 300 338 117 119 101 110 95 85 106 140
278 270 269 274 269 271 270 258 227 70 24 42 27 16 100 95 110 124 111 106 102 96